Home > Weather > Inverness > Past weeks

Flag for United Kingdom Weather for the Past 2 Weeks in Inverness, Scotland, United Kingdom

Now
48 °F

Broken clouds.


Feels Like: 45 °F
Forecast: 40 / 52 °F
Wind: 7 mph from Southwest

Location: Inverness / Dalcross

Current Time: May 1, 2016 at 10:26:17 PM

Latest Report: May 1, 2016 at 9:50 PM


Visibility: N/A

Pressure: 29.77 "Hg

Humidity: 82%

Dew Point: 43 °F

Location of InvernessLocation

Historic Weather in Inverness — Graph

°F

Inverness Temperature Yesterday

Maximum temperature yesterday: 54 °F (at 3:50 PM)
Minimum temperature yesterday: 32 °F (at 12:50 AM)
Average temperature yesterday: 43 °F

High & Low Weather Summary for the Past Weeks

 TemperatureHumidityPressure
High57 °F (Apr 20, 2:20 PM)100% (Apr 21, 12:50 AM)30.45 "Hg (Apr 21, 12:50 AM)
Low28 °F (Apr 27, 5:20 AM)41% (Apr 19, 4:20 PM)29.65 "Hg (Apr 28, 3:20 PM)
Average42 °F76%30.05 "Hg
* Reported Apr 16 9:20 PM — May 1 9:20 PM, Inverness, Weather by CustomWeather, © 2016

Note: Actual official high and low records may vary slightly from our data, if they occured in-between our weather recording intervals... More about our weather records

Advertising

Inverness Weather History for the Previous 24 Hours

Scroll right to see more
 ConditionsComfort  
Time TempWeatherWind HumidityBarometerVisibility
9:20 PM
Sun, May 1
46 °FPartly sunny.8 mph87%29.80 "HgN/A
8:50 PM46 °FPassing clouds.5 mph87%29.80 "HgN/A
8:20 PM46 °FPassing clouds.3 mph87%29.83 "HgN/A
7:50 PM48 °FPassing clouds.5 mph82%29.86 "HgN/A
7:20 PM48 °FPassing clouds.6 mph82%29.86 "HgN/A
6:50 PM48 °FPassing clouds.12 mph82%29.89 "HgN/A
6:20 PM50 °FLight rain. Passing clouds.17 mph71%29.89 "HgN/A
5:50 PM52 °FPassing clouds.17 mph62%29.89 "HgN/A
5:20 PM54 °FPassing clouds.20 mph58%29.92 "HgN/A
4:50 PM54 °FScattered clouds.21 mph54%29.92 "HgN/A
4:20 PM57 °FScattered clouds.22 mph48%29.92 "HgN/A
3:50 PM55 °FScattered clouds.23 mph55%29.92 "HgN/A
3:20 PM55 °FScattered clouds.21 mph51%29.95 "HgN/A
2:50 PM55 °FPartly sunny.23 mph59%29.95 "HgN/A
2:20 PM52 °FPartly sunny.13 mph77%29.95 "HgN/A
1:50 PM50 °FBroken clouds.9 mph82%29.95 "HgN/A
1:20 PM50 °FRain. Broken clouds.9 mph82%29.95 "HgN/A
12:50 PM50 °FBroken clouds.9 mph76%29.95 "HgN/A
12:20 PM50 °FSprinkles. Broken clouds.10 mph88%29.95 "HgN/A
11:50 AM48 °FDrizzle. Partly sunny.10 mph94%29.95 "HgN/A
11:20 AM48 °FDrizzle. Partly sunny.10 mph94%29.92 "HgN/A
10:50 AM46 °FSprinkles. Partly sunny.12 mph93%29.92 "Hg3 mi
10:20 AM54 °FScattered showers. Scattered clouds.25 mph72%29.89 "HgN/A
9:50 AM52 °FScattered clouds.23 mph77%29.89 "HgN/A
9:20 AM52 °FPartly sunny.22 mph77%29.89 "HgN/A
8:50 AM50 °FScattered showers. Scattered clouds.21 mph76%29.89 "HgN/A
8:20 AM48 °FPassing clouds.15 mph76%29.86 "HgN/A
7:50 AM48 °FPassing clouds.16 mph71%29.86 "HgN/A
7:20 AM48 °FPassing clouds.26 mph71%29.86 "HgN/A
6:50 AM48 °FPassing clouds.30 mph71%29.83 "HgN/A
6:20 AM46 °FPassing clouds.32 mph71%29.83 "HgN/A
5:20 AM46 °FCool.20 mph71%29.89 "HgN/A
4:50 AM46 °FCool.13 mph71%29.89 "HgN/A
4:20 AM45 °FQuite cool.18 mph76%29.92 "HgN/A
3:20 AM45 °FQuite cool.10 mph71%29.95 "HgN/A
2:50 AM45 °FPassing clouds.14 mph71%29.95 "HgN/A
2:20 AM43 °FPassing clouds.9 mph81%29.98 "HgN/A
1:50 AM41 °FLight rain. Passing clouds.5 mph81%29.98 "HgN/A
1:20 AM41 °FQuite cool.3 mph81%30.01 "HgN/A
12:50 AM41 °FQuite cool.5 mph81%30.01 "HgN/A
12:20 AM43 °FQuite cool.8 mph71%30.01 "HgN/A
11:50 PM
Sat, Apr 30
41 °FQuite cool.7 mph76%30.01 "HgN/A
11:20 PM39 °FChilly.5 mph81%30.04 "HgN/A
10:50 PM41 °FQuite cool.6 mph81%30.04 "HgN/A
10:20 PM41 °FQuite cool.6 mph81%30.07 "HgN/A
Weather by CustomWeather, © 2016

See weather overviewHow to use our weather pages